Вернуться в каталог

CZ-3C DEB

АктивенGTO
NORAD 40174·DEBRIS·🇨🇳 China

Запущен Oct 31, 2010 с Xichang Satellite Launch Center

Loading…

TLE

УстаревшееSource: Space-Track

Эпоха: Sep 7, 2026, 08:50 UTC

1 40174U 10057AC  26250.36806425 -.00000010  00000-0  27432-4 0  9992
2 40174  20.1323 273.4271 7084194 146.7582 356.7171  2.35043026102436

Отслеживайте CZ-3C DEB в реальном времени с AllMySat

Download on the App Store